When you browse on this site, cookies collect data to enhance your experience and personalize the content and advertising you see.
Visit our Privacy Policy to learn more. By continuing to use the site, you agree to this use of cookies and data.
  • In Schweiz
  • Länderverzeichnis
  • Für 7 Tage
  • Wassertemperatur
  • Satellitenkarten
  • Wetterkarte
  • Widgets
  • user-avatar
    Anmelden

    Stündliche Wetter Bern

    Heute, 14 Dezember, Freitag

    Zeit Temperatur Niederschläge Wind Luftdruck Luftfeuchtigkeit
    00:00 -2°C° 0 mm 1 m/S 712 mmHg 84%
    01:00 -2°C° 0 mm 1 m/S 712 mmHg 83%
    02:00 -2°C° 0 mm 1 m/S 712 mmHg 83%
    03:00 -2°C° 0 mm 1 m/S 712 mmHg 82%
    04:00 -2°C° 0 mm 1 m/S 712 mmHg 81%
    05:00 -2°C° 0 mm 1 m/S 712 mmHg 81%
    06:00 -2°C° 0 mm 1 m/S 712 mmHg 84%
    07:00 -2°C° 0 mm 1 m/S 712 mmHg 81%
    08:00 -1°C° 0 mm 1 m/S 713 mmHg 78%
    09:00 0°C° 0 mm 1 m/S 713 mmHg 74%
    10:00 +1°C° 0 mm 1 m/S 713 mmHg 70%
    11:00 +2°C° 0 mm 1 m/S 713 mmHg 66%
    12:00 +3°C° 0 mm 1 m/S 713 mmHg 62%
    13:00 +2°C° 0 mm 1 m/S 714 mmHg 66%
    14:00 +1°C° 0 mm 1 m/S 714 mmHg 71%
    15:00 +1°C° 0 mm 1 m/S 714 mmHg 75%
    16:00 0°C° 0 mm 1 m/S 714 mmHg 78%
    17:00 -1°C° 0 mm 1 m/S 715 mmHg 82%
    18:00 -2°C° 0 mm 1 m/S 715 mmHg 86%
    19:00 -3°C° 0 mm 1 m/S 716 mmHg 85%
    20:00 -3°C° 0 mm 1 m/S 716 mmHg 84%
    21:00 -3°C° 0 mm 1 m/S 716 mmHg 84%
    22:00 -3°C° 0 mm 1 m/S 716 mmHg 83%
    23:00 -3°C° 0 mm 1 m/S 716 mmHg 81%

    Morgen, 15 Dezember, Samstag

    Zeit Temperatur Niederschläge Wind Luftdruck Luftfeuchtigkeit
    00:00 -3°C° 0 mm 1 m/S 716 mmHg 80%
    01:00 -3°C° 0 mm 1 m/S 716 mmHg 79%
    02:00 -3°C° 0 mm 1 m/S 717 mmHg 79%
    03:00 -4°C° 0 mm 0 m/S 717 mmHg 78%
    04:00 -3°C° 0 mm 1 m/S 717 mmHg 77%
    05:00 -4°C° 0 mm 1 m/S 717 mmHg 76%
    06:00 -4°C° 0 mm 1 m/S 717 mmHg 75%
    07:00 -3°C° 0 mm 1 m/S 717 mmHg 69%
    08:00 -2°C° 0 mm 1 m/S 717 mmHg 64%
    09:00 -1°C° 0 mm 1 m/S 717 mmHg 59%
    10:00 +1°C° 0 mm 1 m/S 717 mmHg 54%
    11:00 +2°C° 0 mm 1 m/S 716 mmHg 49%
    12:00 +4°C° 0 mm 1 m/S 716 mmHg 44%
    13:00 +3°C° 0 mm 1 m/S 716 mmHg 47%
    14:00 +2°C° 0 mm 1 m/S 715 mmHg 50%
    15:00 +1°C° 0 mm 1 m/S 715 mmHg 53%
    16:00 +1°C° 0 mm 1 m/S 715 mmHg 53%
    17:00 0°C° 0 mm 1 m/S 715 mmHg 53%
    18:00 0°C° 0 mm 1 m/S 715 mmHg 53%
    19:00 0°C° 0 mm 1 m/S 715 mmHg 52%
    20:00 +1°C° 0 mm 1 m/S 714 mmHg 52%
    21:00 +1°C° 0 mm 1 m/S 714 mmHg 51%
    22:00 +2°C° 0.8 mm 1 m/S 714 mmHg 63%
    23:00 +2°C° 0.8 mm 1 m/S 713 mmHg 75%

    übermorgen, 16 Dezember, Sonntag

    Zeit Temperatur Niederschläge Wind Luftdruck Luftfeuchtigkeit
    00:00 +2°C° 0.8 mm 1 m/S 713 mmHg 86%
    01:00 +2°C° 1.2 mm 2 m/S 713 mmHg 88%
    02:00 +3°C° 1.2 mm 2 m/S 712 mmHg 90%
    03:00 +4°C° 1.2 mm 2 m/S 712 mmHg 92%
    04:00 +5°C° 0.5 mm 2 m/S 712 mmHg 93%
    05:00 +5°C° 0.5 mm 2 m/S 712 mmHg 94%
    06:00 +5°C° 0.5 mm 2 m/S 712 mmHg 94%
    07:00 +5°C° 0.5 mm 2 m/S 713 mmHg 95%
    08:00 +6°C° 0.5 mm 1 m/S 713 mmHg 95%
    09:00 +6°C° 0.5 mm 1 m/S 713 mmHg 96%
    10:00 +7°C° 0.3 mm 1 m/S 713 mmHg 95%
    11:00 +7°C° 0.3 mm 1 m/S 713 mmHg 95%
    12:00 +7°C° 0.3 mm 1 m/S 712 mmHg 94%
    13:00 +7°C° 0.3 mm 1 m/S 712 mmHg 95%
    14:00 +5°C° 0.3 mm 0 m/S 712 mmHg 95%
    15:00 +5°C° 0.3 mm 0 m/S 712 mmHg 96%
    16:00 +4°C° 0.4 mm 0 m/S 712 mmHg 96%
    17:00 +4°C° 0.4 mm 0 m/S 712 mmHg 96%
    18:00 +5°C° 0.4 mm 1 m/S 713 mmHg 96%
    19:00 +4°C° 0.2 mm 0 m/S 713 mmHg 96%
    20:00 +3°C° 0.2 mm 0 m/S 713 mmHg 96%
    21:00 +3°C° 0.2 mm 0 m/S 713 mmHg 96%
    22:00 +3°C° 0 mm 0 m/S 713 mmHg 95%
    23:00 +3°C° 0 mm 0 m/S 713 mmHg 95%

    17 Dezember, Montag

    Zeit Temperatur Niederschläge Wind Luftdruck Luftfeuchtigkeit
    00:00 +2°C° 0 mm 0 m/S 713 mmHg 95%
    01:00 +2°C° 0 mm 0 m/S 713 mmHg 94%
    02:00 +3°C° 0 mm 1 m/S 713 mmHg 94%
    03:00 +3°C° 0 mm 1 m/S 714 mmHg 94%
    04:00 +3°C° 0 mm 1 m/S 714 mmHg 94%
    05:00 +3°C° 0 mm 1 m/S 715 mmHg 94%
    06:00 +3°C° 0 mm 1 m/S 715 mmHg 94%
    07:00 +3°C° 0.1 mm 1 m/S 715 mmHg 93%
    08:00 +4°C° 0.1 mm 1 m/S 716 mmHg 92%
    09:00 +5°C° 0.1 mm 1 m/S 716 mmHg 91%
    10:00 +4°C° 0.2 mm 2 m/S 717 mmHg 90%
    11:00 +5°C° 0.2 mm 2 m/S 717 mmHg 89%
    12:00 +6°C° 0.2 mm 2 m/S 717 mmHg 88%
    13:00 +5°C° 0.3 mm 2 m/S 718 mmHg 90%
    14:00 +5°C° 0.3 mm 2 m/S 718 mmHg 91%
    15:00 +4°C° 0.3 mm 2 m/S 719 mmHg 93%
    16:00 +4°C° 0.2 mm 2 m/S 719 mmHg 93%
    17:00 +3°C° 0.2 mm 2 m/S 720 mmHg 94%
    18:00 +3°C° 0.2 mm 2 m/S 721 mmHg 94%
    19:00 +2°C° 0 mm 2 m/S 721 mmHg 93%
    20:00 +2°C° 0 mm 1 m/S 721 mmHg 93%
    21:00 +1°C° 0 mm 1 m/S 721 mmHg 92%
    22:00 +1°C° 0 mm 1 m/S 721 mmHg 91%
    23:00 +1°C° 0 mm 1 m/S 721 mmHg 90%

    18 Dezember, Dienstag

    Zeit Temperatur Niederschläge Wind Luftdruck Luftfeuchtigkeit
    00:00 0°C° 0 mm 1 m/S 721 mmHg 89%
    01:00 0°C° 0 mm 1 m/S 721 mmHg 88%
    02:00 0°C° 0 mm 1 m/S 721 mmHg 86%
    03:00 0°C° 0 mm 1 m/S 721 mmHg 84%
    04:00 0°C° 0 mm 1 m/S 720 mmHg 83%
    05:00 0°C° 0 mm 1 m/S 720 mmHg 81%
    06:00 0°C° 0 mm 1 m/S 720 mmHg 79%
    07:00 +1°C° 0 mm 1 m/S 720 mmHg 77%
    08:00 +2°C° 0 mm 1 m/S 720 mmHg 76%
    09:00 +3°C° 0 mm 1 m/S 719 mmHg 74%
    10:00 +4°C° 0 mm 1 m/S 719 mmHg 73%
    11:00 +6°C° 0 mm 1 m/S 718 mmHg 72%
    12:00 +7°C° 0 mm 1 m/S 718 mmHg 71%
    13:00 +7°C° 0 mm 1 m/S 717 mmHg 74%
    14:00 +6°C° 0 mm 1 m/S 717 mmHg 76%
    15:00 +5°C° 0 mm 1 m/S 716 mmHg 78%
    16:00 +3°C° 0 mm 2 m/S 716 mmHg 77%
    17:00 +3°C° 0 mm 2 m/S 716 mmHg 76%
    18:00 +2°C° 0 mm 2 m/S 716 mmHg 74%
    19:00 +3°C° 0 mm 2 m/S 716 mmHg 74%
    20:00 +3°C° 0 mm 2 m/S 716 mmHg 74%
    21:00 +3°C° 0 mm 2 m/S 716 mmHg 74%
    22:00 +4°C° 0.1 mm 2 m/S 716 mmHg 75%
    23:00 +4°C° 0.1 mm 2 m/S 715 mmHg 75%

    19 Dezember, Mittwoch

    Zeit Temperatur Niederschläge Wind Luftdruck Luftfeuchtigkeit
    00:00 +4°C° 0.1 mm 2 m/S 715 mmHg 76%
    01:00 +4°C° 0.9 mm 2 m/S 715 mmHg 79%
    02:00 +4°C° 0.9 mm 2 m/S 715 mmHg 82%
    03:00 +4°C° 0.9 mm 2 m/S 715 mmHg 85%
    04:00 +4°C° 1.1 mm 2 m/S 715 mmHg 87%
    05:00 +4°C° 1.1 mm 2 m/S 715 mmHg 89%
    06:00 +6°C° 1.1 mm 1 m/S 715 mmHg 91%
    07:00 +6°C° 1.2 mm 1 m/S 715 mmHg 92%
    08:00 +6°C° 1.2 mm 1 m/S 715 mmHg 93%
    09:00 +6°C° 1.2 mm 1 m/S 715 mmHg 94%
    10:00 +6°C° 0.7 mm 1 m/S 715 mmHg 94%
    11:00 +7°C° 0.7 mm 1 m/S 715 mmHg 94%
    12:00 +7°C° 0.7 mm 1 m/S 715 mmHg 94%
    13:00 +7°C° 0.2 mm 1 m/S 715 mmHg 94%
    14:00 +7°C° 0.2 mm 1 m/S 715 mmHg 94%
    15:00 +7°C° 0.2 mm 1 m/S 715 mmHg 95%
    16:00 +6°C° 0.2 mm 1 m/S 715 mmHg 95%
    17:00 +6°C° 0.2 mm 1 m/S 715 mmHg 95%
    18:00 +5°C° 0.2 mm 1 m/S 715 mmHg 95%
    19:00 +5°C° 0.1 mm 1 m/S 715 mmHg 95%
    20:00 +4°C° 0.1 mm 1 m/S 715 mmHg 95%
    21:00 +4°C° 0.1 mm 1 m/S 715 mmHg 95%
    22:00 +3°C° 0 mm 2 m/S 715 mmHg 94%
    23:00 +2°C° 0 mm 2 m/S 715 mmHg 94%
    Mehr zeigen